カタログに戻る

STARLINK-33608

運用中通信VLEO
NORAD 63425·PAYLOAD·🇺🇸 United States

打ち上げ Mar 31, 2025 から Cape Canaveral Space Force Station

Loading…

次のパス (今後24時間)

TLE

最新Source: CelesTrak SupGP

元期: Sep 14, 2026, 20:42 UTC

1 63425C 25065AC  26257.86298611 -.00055722  00000+0 -20188-2 0  2571
2 63425  43.0015 118.7117 0001432 271.1191 349.6934 15.27597775    17

AllMySatでSTARLINK-33608をリアルタイム追跡

Download on the App Store